Location: Quaker Farms
(41.4276°N, 73.1557°W)
Time: 02:16:55
(UTC+00:00)

Altair - Pass Details

Date: 22 June 2021
Orbit: 1501 x 1682 km, 47.2° (Epoch: 23 July)

Event Time Altitude Azimuth Distance (km) Brightness Sun altitude
Rises 20:28:20 0° 281° (W) 4,726 10.8 42.3°
Reaches altitude 10° 20:31:26 10° 284° (WNW) 3,765 10.6 41.8°
Maximum altitude 20:40:58 63° 6° (N) 1,769 8.4 40.0°
Drops below altitude 10° 20:50:51 10° 86° (E) 3,902 9.2 38.1°
Sets 20:54:07 0° 90° (E) 4,906 9.7 37.5°
